Location: Nashville
(36.1660°N, 86.7840°W)
Time: 19:04:48
(UTC-06:00)

SR - All Passes

Search period start: 22 January 2022 00:00
Search period end: 01 February 2022 00:00
Orbit: 582 x 872 km, 66.7° (Epoch: 22 January)

Date Brightness Start Highest point End Pass type
(mag) Time Alt. Az. Time Alt. Az. Time Alt. Az.
22 Jan - 09:52:50 10° SSE 09:56:28 27° ESE 10:00:03 10° NE daylight
22 Jan - 11:34:56 10° WSW 11:38:23 23° NW 11:41:50 10° N daylight
22 Jan - 18:35:55 10° NNE 18:38:20 14° NE 18:40:49 10° E visible
22 Jan - 20:15:57 10° NNW 20:20:44 73° WSW 20:25:57 10° SSE visible
23 Jan - 09:05:47 10° ESE 09:06:53 11° ESE 09:07:58 10° E daylight
23 Jan - 10:44:08 10° SW 10:48:21 53° WNW 10:52:31 10° NNE daylight
23 Jan - 19:26:10 10° NNW 19:30:50 52° ENE 19:35:53 10° SE visible
23 Jan - 21:09:27 10° WNW 21:12:31 16° WSW 21:15:43 10° SW night (unlit)
24 Jan - 09:54:14 10° SSW 09:58:30 60° ESE 10:02:40 10° NE daylight
24 Jan - 11:39:08 10° WNW 11:40:51 12° NW 11:42:36 10° NNW daylight
24 Jan - 18:36:51 10° N 18:40:48 25° NE 18:45:00 10° ESE visible
24 Jan - 20:18:24 10° NW 20:22:50 36° WSW 20:27:36 10° S visible
25 Jan - 09:05:18 10° SSE 09:08:46 24° ESE 09:12:13 10° NE daylight
25 Jan - 10:47:04 10° WSW 10:50:38 25° NW 10:54:12 10° N daylight
25 Jan - 17:48:25 10° NNE 17:50:34 13° NE 17:52:47 10° ENE visible
25 Jan - 19:28:12 10° NNW 19:33:02 80° WSW 19:38:18 10° SSE visible
26 Jan - 09:56:23 10° SW 10:00:37 59° WNW 10:04:49 10° NNE daylight
26 Jan - 18:38:29 10° NNW 18:43:07 47° ENE 18:48:08 10° SE visible
26 Jan - 20:21:30 10° WNW 20:24:50 18° WSW 20:28:21 10° SSW visible
27 Jan - 09:06:35 10° S 09:10:46 54° ESE 09:14:55 10° NE daylight
27 Jan - 10:51:01 10° W 10:53:05 13° NW 10:55:10 10° NNW daylight
27 Jan - 17:49:13 10° N 17:53:04 23° NE 17:57:09 10° ESE visible
27 Jan - 19:30:36 10° NW 19:35:08 39° WSW 19:40:02 10° S visible
28 Jan - 08:17:46 10° SSE 08:21:05 22° ESE 08:24:21 10° ENE daylight
28 Jan - 09:59:13 10° WSW 10:02:53 28° NW 10:06:33 10° N daylight
28 Jan - 17:00:58 10° NNE 17:02:48 12° NE 17:04:41 10° ENE daylight
28 Jan - 18:40:28 10° NNW 18:45:19 86° WSW 18:50:37 10° SSE visible
29 Jan - 09:08:38 10° SW 09:12:53 66° WNW 09:17:07 10° NNE daylight
29 Jan - 17:50:47 10° NNW 17:55:24 44° ENE 18:00:23 10° SE visible
29 Jan - 19:33:35 10° WNW 19:37:10 20° WSW 19:40:56 10° SSW visible
30 Jan - 08:18:55 10° S 08:23:03 49° ESE 08:27:09 10° NE daylight
30 Jan - 10:02:58 10° W 10:05:19 14° NW 10:07:40 10° NNW daylight
30 Jan - 17:01:34 10° N 17:05:19 22° NE 17:09:16 10° ESE daylight
30 Jan - 18:42:48 10° NW 18:47:26 43° WSW 18:52:27 10° S visible
31 Jan - 07:30:15 10° SSE 07:33:22 20° ESE 07:36:28 10° ENE daylight
31 Jan - 09:11:21 10° WSW 09:15:08 30° WNW 09:18:54 10° N daylight
31 Jan - 16:13:36 10° NNE 16:15:02 11° NE 16:16:29 10° ENE daylight
31 Jan - 17:52:43 10° NNW 17:57:37 87° ENE 18:02:56 10° SSE visible
